Location: Unspecified
(0.0000°N, 0.0000°E)
Time: 17:57:56
(UTC+00:00)

STARLINK 1061 - Pass Details

Date: 19 January 2020
Orbit: 548 x 551 km, 53.0° (Epoch: 17 January)

Event Time Altitude Azimuth Distance (km) Brightness Sun altitude
Rises 05:27:00 0° 200° (SSW) 2,714 7.2 -10.2°
Reaches altitude 10° 05:29:22 10° 192° (SSW) 1,818 6.4 -9.6°
Maximum altitude 05:33:11 36° 124° (SE) 872 5.4 -8.7°
Drops below altitude 10° 05:36:59 10° 57° (ENE) 1,810 6.8 -7.8°
Sets 05:39:20 0° 48° (NE) 2,700 7.5 -7.3°
